Sobat POKER ONLINE - Agen DEWAPOKER Indonesia Terpercaya SOBAT POKER88

Jackpot

Texas Poker Multi Jackpot System

Kini Telah hadir Jackpot SUPER ROYAL FLUSH

Kini Telah hadir Jackpot 2000 (khusus table VIP keatas).

Ikutilah global jackpot yang tersedia di system kami, dengan system jackpot terbaru dan pertama di indonesia, anda dapat membeli jackpot dengan harga 100 rupiah saja dan menangkan hadiahnya hingga puluhan juta rupiah.

Jackpot bukanlah suatu keharusan untuk dibeli, namun kami memberikan suatu fitur tambahan untuk member tercinta dari www.sobatpkr.net.

Terdapat tiga pilihan harga jackpot yang bisa anda beli yaitu :100,500,1000 dan 2000(khusus table VIP Keatas) rupiah.

Hadiah dari Multi jackpot system www.sobatpkr.net

  1. full house x 10 harga jackpot yang anda beli.
      (contoh:anda membeli 1000 maka:1000 X10 = 10.000)
  2. four of kind x 250 harga jackpot yang anda beli
      (contoh:anda membeli 1000 maka:1000 X250 = 250.000)
  3. Straight flush x 1200
      (contoh:anda membeli 1000 maka:1000 X1200 = 1.200.000)
  4. Royal flush x 10000 harga jackpot yang anda beli
      (contoh:anda membeli 1000 maka:1000 X10000 = 10.000.000)
  5. SUPER ROYAL FLUSH x 30000 harga jackpot yang anda beli
      (contoh:anda membeli 1000 maka:1000 X30000 = 30.000.000)

Kondisi kartu

  1. full house adalah kondisi kartu dimana kartu anda dan kartu tengah dengan total 7 kartu bisa mendapatkan nilai 5 kartu dengan kombinasi 1 tris(three of kind) dan 1 pair, contoh 3 kartu 10 dan 2 kartu 5
  2. Four of kind adalah kondisi kartu dimana kartu anda dan kartu tengah dengan total 7 kartu bisa mendapatkan nilai 5 kartu dengan kombinasi 4 kartu yang sama jumlah dan 1 kartu apapun juga contoh anda mendapatkan 4 buah kartu angka 3 dan 1 kartu apapun.
  3. Staright flush adalah kondisi kartu dimana kartu anda dan kartu tengah dengan total 7 kartu bisa mendapatkan nilai 5 kartu dengan kombinasi seri / staright dengan kembang yang sama contoh : urutan kartu dari angka 5, 6, 7, 8 , 9 10 dengan kembang yg sama misalnya as hati
  4. Royal flush adalah kondisi kartu dimana kartu anda dan kartu tengah dengan total 7 kartu bisa mendapatkan nilai 5 kartu dengan kombinasi seri / staright dengan kembang yang sama tetapi kartu tersebut haruslah dimulai dari 10. contoh 10, Queen, Jack, King dan aces dengan kembang yang sama
  5. Super Royal flush adalah kondisi kartu dimana Kedua kartu anda digabung dengan 3 kartu pertama meja haruslah royal flush. contoh kartu anda 10,Queen kembang sama dan 3 kartu pertama meja adalah Jack, King dan aces dengan kembang yang sama

Demikian adalah penjelasan dari Multi Jackpot www.sobatpkr.net terima kasih dan selamat bermain salam hoki dari kami

Texas Poker Jackpot Winner

TOP SUPER ROYAL FLUSH
No.TanggalNamaPriceWin
125/05 16:23ABOOTTSuper Royal flush60,000,000
225/05 15:54DR1NKNGSuper Royal flush15,000,000
325/05 04:52SONGONG21Super Royal flush15,000,000
425/05 03:00WAMBE88Super Royal flush15,000,000
525/05 01:42NUVO199Super Royal flush15,000,000
TOP ROYAL FLUSH
No.TanggalNamaPriceWin
125/05 19:15BADIGULRoyal flush10,000,000
225/05 19:06BQDSEDS4HLRoyal flush5,000,000
325/05 19:02CIMEEHRoyal flush1,000,000
425/05 18:42YUDILOBONRoyal flush10,000,000
525/05 18:33LUPES22Royal flush2,000,000
TOP STRAIGHT FLUSH
No.TanggalNamaPriceWin
125/05 19:24MBOKSIKEM3Straight Flush2,400,000
225/05 19:24CURUT9966Straight Flush600,000
325/05 19:23S2804Straight Flush1,200,000
425/05 19:18LULU100Straight Flush600,000
525/05 19:17NOORS99Straight Flush240,000
LATEST JACKPOT
No.TanggalNamaPriceWin
125/05 19:25DAFFA1989Four Of A Kind50,000
225/05 19:25BEJOKU78Four Of A Kind125,000
325/05 19:25JN5HOKILAYFull House5,000
425/05 19:25PLGILA88Full House2,000
525/05 19:25ERICMI89Full House2,000
625/05 19:25PEGEHA2Full House2,000
725/05 19:25DODOW1Full House10,000
825/05 19:25ELLAND17Full House2,000
925/05 19:25GEVA2705Full House2,000
1025/05 19:25KERISNA866Full House2,000
1125/05 19:25FERY34Full House2,000
1225/05 19:25TORA898Full House2,000
1325/05 19:25HAYDANSITFull House10,000
1425/05 19:25ZACKP0K3RFull House2,000
1525/05 19:25D3496UHFull House2,000
1625/05 19:25MBAI11Full House5,000
1725/05 19:25C6032E5FFull House2,000
1825/05 19:25LAKSAMAN33Full House2,000
1925/05 19:25PEL3RQQFull House5,000
2025/05 19:25RSLININGFull House2,000
2125/05 19:25KAMBALITIFull House1,000
2225/05 19:25NOBOY88Full House10,000
2325/05 19:25TOS123Full House2,000
2425/05 19:25WAGON66Full House5,000
2525/05 19:25KO09V1YWQIFull House1,000
2625/05 19:25RIYANAPRILFull House1,000
2725/05 19:25RR_HHFull House20,000
2825/05 19:25NA11N99Full House1,000
2925/05 19:25SERMAN88Full House2,000
3025/05 19:25SELABU01Full House2,000
3125/05 19:25KILONK21Full House10,000
3225/05 19:25JARAN066Full House5,000
3325/05 19:25TEMPIK01Full House2,000
3425/05 19:25DZUNA63Full House5,000
3525/05 19:25HOGIKUNGFull House10,000
3625/05 19:25KIMBEK87Full House1,000
3725/05 19:25GERHANA80Full House5,000
3825/05 19:25MIHAWK55Full House2,000
3925/05 19:24RAD1TFull House5,000
4025/05 19:24GABHAFull House5,000
4125/05 19:24BANK_J0Full House5,000
4225/05 19:24UNTUNGBESFull House2,000
4325/05 19:24AISYSTOREFull House10,000
4425/05 19:24TOMBENG7Full House10,000
4525/05 19:24CIKI1000Full House5,000
4625/05 19:24KETUAP0K3RFull House1,000
4725/05 19:24PT4DMAULANA4DFull House2,000
4825/05 19:24PANBERS16Full House2,000
4925/05 19:24MBOKSIKEM3Straight Flush2,400,000
5025/05 19:24CAKHILZZFull House2,000

Domino Multi Jackpot System

Ikutilah global jackpot yang tersedia di system kami, dengan system jackpot terbaru dan pertama di indonesia, anda dapat membeli jackpot dengan harga 100 rupiah saja dan menangkan hadiahnya hingga puluhan juta rupiah.

Jackpot bukanlah suatu keharusan untuk dibeli, namun kami memberikan suatu fitur tambahan untuk member tercinta dari www.sobatpkr.net.

Terdapat tiga pilihan harga jackpot yang bisa anda beli yaitu :100,500 dan 1000 rupiah.

Hadiah dari Multi jackpot system www.sobatpkr.net

  1. Murni Kecil x 50 harga jackpot yang anda beli.
      (contoh:anda membeli 1000 maka:1000 X 50 = 50.000)
  2. Murni Besar x 50 harga jackpot yang anda beli
      (contoh:anda membeli 1000 maka:1000 X 50 = 50.000)
  3. BALAK x 100 harga jackpot yang anda beli
      (contoh:anda membeli 1000 maka:1000 X 100 = 100.000)
  4. ENAM DEWA x 6666 harga jackpot yang anda beli
      (contoh:anda membeli 1000 maka:1000 X 6666 = 6.666.000)

Demikian adalah penjelasan dari Multi Jackpot www.sobatpkr.net terima kasih dan selamat bermain salam hoki dari kami

Domino Jackpot Winner

TOP ENAM DEWA
No.TanggalNamaPriceWin
125/05 15:50JUHUB123murni enam6,666,000
225/05 13:56PANGGA86murni enam6,666,000
325/05 13:40WAKWAW127murni enam3,333,000
425/05 12:15NGEMIS18murni enam666,600
525/05 09:51ARKHAN29murni enam3,333,000
TOP BALAK
No.TanggalNamaPriceWin
125/05 19:23QU4D1L4balak100,000
225/05 19:23SOKIPUNAIbalak100,000
325/05 19:23CHAJM6666balak50,000
425/05 19:18KTC6666balak100,000
525/05 19:17VGOADI01balak100,000
LATEST JACKPOT
No.TanggalNamaPriceWin
125/05 19:25R4MP4555murni kecil5,000
225/05 19:25KUSUMO2murni kecil50,000
325/05 19:24WRDGENIUSmurni kecil50,000
425/05 19:24KHOEENGmurni kecil50,000
525/05 19:24SAMSU212murni kecil50,000
625/05 19:23QU4D1L4balak100,000
725/05 19:23SOKIPUNAIbalak100,000
825/05 19:23CHAJM6666balak50,000
925/05 19:23ORAYTAPA99murni besar50,000
1025/05 19:22M45BOZmurni kecil50,000
1125/05 19:22C1BELmurni kecil50,000
1225/05 19:21SIANIIDA88murni besar25,000
1325/05 19:21MEME1233murni kecil25,000
1425/05 19:20CEE96murni kecil50,000
1525/05 19:20LESLEYHEADmurni kecil25,000
1625/05 19:20S4RM97murni besar25,000
1725/05 19:19SHESYEL27murni besar25,000
1825/05 19:19LOLOO_12murni kecil25,000
1925/05 19:19KIS12murni besar5,000
2025/05 19:18KTC6666balak100,000
2125/05 19:18BESTBOOSSmurni besar50,000
2225/05 19:18APTRIYAN48murni kecil50,000
2325/05 19:17VGOADI01balak100,000
2425/05 19:16CHRISMALIAbalak50,000
2525/05 19:16PROJOK878murni kecil25,000
2625/05 19:16UCUP6789murni besar50,000
2725/05 19:16TSM6AOXSLAmurni besar25,000
2825/05 19:14HOMS1N88murni kecil5,000
2925/05 19:14CUTZZZmurni kecil5,000
3025/05 19:14S3DOT1murni besar50,000
3125/05 19:12ALIJ28balak100,000
3225/05 19:11GWY1ZPCTEZmurni besar5,000
3325/05 19:10BANDARAYAMmurni besar5,000
3425/05 19:10PLGFARHAN99murni kecil50,000
3525/05 19:10ZZZXXX2525murni besar25,000
3625/05 19:10B43B3murni kecil50,000
3725/05 19:09OSAKAVIPmurni besar50,000
3825/05 19:09MRICA200murni kecil25,000
3925/05 19:08ANTON6368murni kecil5,000
4025/05 19:08MAR02murni besar50,000
4125/05 19:08IAXF5I1W10murni kecil5,000
4225/05 19:07KICIK66murni kecil25,000
4325/05 19:06CHARIES77murni besar25,000
4425/05 19:06JOBONmurni besar25,000
4525/05 19:06Q01DRJRQWUmurni besar5,000
4625/05 19:06CATUT78murni besar50,000
4725/05 19:06FDS44WQmurni kecil50,000
4825/05 19:06HARSONO998lucky992,500
4925/05 19:05SYARUM10murni kecil50,000
5025/05 19:05SAMPIT01murni besar50,000

Ceme Multi Jackpot System

Jackpot dilihat dari gabungan kartu pemain dengan kartu bandar. Bandar harus membeli jackpot sebanyak jumlah player yang sedang duduk. Sebagai contoh bila terdapat 3 pemain duduk bermain, dan bandar memutuskan untuk membeli jackpot Rp 1.000, maka pada periode tersebut bandar akan membeli jackpot sebanyak 3xRp1.000 = Rp3.000.

Jackpot bukanlah suatu keharusan untuk dibeli, namun kami memberikan suatu fitur tambahan untuk member tercinta dari www.sobatpkr.net.

Terdapat tiga pilihan harga jackpot yang bisa anda beli yaitu :100,500 dan 1000 rupiah.

Hadiah dari Multi jackpot system www.sobatpkr.net

  1. Murni Kecil x 50 harga jackpot yang anda beli.
      (contoh:anda membeli 1000 maka:1000 X 50 = 50.000)
  2. Murni Besar x 50 harga jackpot yang anda beli
      (contoh:anda membeli 1000 maka:1000 X 50 = 50.000)
  3. BALAK x 200 harga jackpot yang anda beli
      (contoh:anda membeli 1000 maka:1000 X 200 = 200.000)
  4. ENAM DEWA x 6666 harga jackpot yang anda beli
      (contoh:anda membeli 1000 maka:1000 X 6666 = 6.666.000)

Demikian adalah penjelasan dari Multi Jackpot www.sobatpkr.net terima kasih dan selamat bermain salam hoki dari kami

Ceme Jackpot Winner

TOP ENAM DEWA
No.TanggalNamaPriceWin
125/05 19:03KAJ310murni enam3,333,000
225/05 19:00MRF96G7EIBmurni enam666,600
325/05 19:00NECROLYTEmurni enam6,666,000
425/05 18:50ANDRE2694murni enam3,333,000
525/05 18:14ZHULIIS324murni enam6,666,000
TOP BALAK
No.TanggalNamaPriceWin
125/05 19:25YUMABEbalak20,000
225/05 19:23WANTI3balak100,000
325/05 19:23KAPENOL00balak100,000
425/05 19:23KARNAN1234balak100,000
525/05 19:23DWIK163balak200,000
LATEST JACKPOT
No.TanggalNamaPriceWin
125/05 19:25IBRA27168murni besar25,000
225/05 19:25HOKIYA88murni besar5,000
325/05 19:25DOI78910murni besar5,000
425/05 19:25TORSY999murni kecil50,000
525/05 19:25GONDOARUMmurni kecil50,000
625/05 19:25GOEL88_murni kecil25,000
725/05 19:25ZAWARA_79murni besar25,000
825/05 19:25YUMABEbalak20,000
925/05 19:25BOSSUBQImurni kecil5,000
1025/05 19:25JERUK9murni besar50,000
1125/05 19:25ERICK3456murni besar25,000
1225/05 19:25JERUK9murni besar50,000
1325/05 19:25BD98F58Dmurni kecil50,000
1425/05 19:25JADULL85murni kecil50,000
1525/05 19:25E96C7558murni kecil25,000
1625/05 19:25VIETZ347murni kecil25,000
1725/05 19:24EDYYUL1murni besar50,000
1825/05 19:24BABIAIR123murni besar50,000
1925/05 19:24RULIN77murni besar5,000
2025/05 19:24EMAA77murni besar5,000
2125/05 19:24BRV77murni kecil50,000
2225/05 19:24KARATBAHTImurni besar50,000
2325/05 19:24ENONS9248murni besar5,000
2425/05 19:24RJXXX1010murni kecil50,000
2525/05 19:24NOVIANTONmurni kecil25,000
2625/05 19:24RICYImurni besar25,000
2725/05 19:24DANGZDUDUmurni besar50,000
2825/05 19:24M4NFORM4RSmurni kecil5,000
2925/05 19:24FAHRUL150murni kecil50,000
3025/05 19:24DWIK163murni besar50,000
3125/05 19:24QVJ2V2H3IKmurni besar50,000
3225/05 19:24WIRA_ORA99murni kecil50,000
3325/05 19:24E0R9VWWGWNmurni kecil50,000
3425/05 19:23AJI636murni besar50,000
3525/05 19:23WANTI3balak100,000
3625/05 19:23KAPENOL00balak100,000
3725/05 19:23KARNAN1234balak100,000
3825/05 19:23BONUSGANmurni kecil50,000
3925/05 19:23LUNA0118murni kecil25,000
4025/05 19:23DWIK163balak200,000
4125/05 19:23KECOAK66balak20,000
4225/05 19:23UNTAL50murni besar50,000
4325/05 19:23NGUK23murni kecil50,000
4425/05 19:23QINPOT333murni besar50,000
4525/05 19:23JERUK9murni kecil50,000
4625/05 19:23BUBUH12murni kecil50,000
4725/05 19:22MRWINAmurni besar50,000
4825/05 19:22WIN343murni besar50,000
4925/05 19:22TIAPUTRImurni besar5,000
5025/05 19:22NEST0880murni besar25,000